Tracking 28794 objects as of 19-Apr-2024
HD Live streaming from Space Station
objects crossing your sky now

NOAA 16 DEB

Track NOAA 16 DEB now!
10-day predictions


NORAD ID: 41205
Int'l Code: 2000-055DJ
Perigee: 772.9 km
Apogee: 798.9 km
Inclination: 99.0 °
Period: 100.4 minutes
Semi major axis: 7156 km
RCS: Unknown
Launch date: September 21, 2000
Source: United States (US)
Launch site: AIR FORCE WESTERN TEST RANGE (AFWTR)

Note: This is SATELLITE DEBRIS
Your satellite tracking list
Your tracking list is empty




NASA's NSSDC Master Catalog

Two Line Element Set (TLE):
1 41205U 00055DJ  24109.16588706  .00024610  00000-0  88046-2 0  9990
2 41205  98.9536 249.1788 0018207 286.5079  73.4104 14.33884331431968
Source of the keplerian elements: AFSPC